[[{"header":{"parameterUnit":"m.s-1","parameterCategory":2,"la1":30.2991,"la2":30.254,"lo1":-89.0895,"lo2":-89.0444,"dy":0.0017,"dx":0.0017,"nx":28,"ny":28,"refTime":"2025-06-05T09:00:00:Z","depth":"0","parameterNumber":2,"parameterNumberName":"U-component_of_CURRENTS"},"data":[0,0,0,0,0,0,0,0,0,0,0,0,0,0,0,0,0,0,0,0,0,0,0,0,0,0,0,0,0,0,0,0,0,0,0,0,0,0,0,0,0,0,0,0,0,0,0,0,0,0,0,0,0,0,0,0,0,0,0.2118,0.212,0,0.2269,0.2271,0.2272,0.2374,0.2375,0.2376,0.2377,0.2474,0.2475,0.2476,0,0,0,0,0,0,0,0,0,0,0,0,0,0.2125,0.2123,0.2118,0.212,0.2123,0.2269,0.2271,0.2272,0.2373,0.2375,0.2376,0.2378,0.2473,0.2475,0.2477,0,0,0,0,0,0,0,0,0,0,0,0,0,0.2178,0.2122,0.2117,0.2195,0.2203,0.2269,0.2271,0.2273,0.2373,0.2375,0.2377,0.2378,0.2472,0.2475,0.2477,0.2455,0,0,0.2483,0.2484,0,0,0,0,0,0,0,0,0.2175,0.2177,0.2181,0.2189,0.22,0.2309,0.2309,0.2333,0.2373,0.2303,0.2377,0.2379,0.2415,0.2422,0.244,0.2459,0.2463,0.2484,0.2485,0.2486,0.2487,0,0,0,0,0,0,0,0.217,0.2172,0.2173,0.2183,0.2195,0.2294,0.2301,0.2315,0.2342,0.2309,0.2318,0.2343,0.242,0.2438,0.2443,0.2465,0.2484,0.2486,0.2487,0.2488,0.2501,0.25,0,0,0,0,0,0,0.2149,0.2167,0.2168,0.2178,0.2197,0.2291,0.2299,0.2268,0.2344,0.2359,0.2341,0.2347,0.2433,0.2441,0.2447,0.2425,0.2486,0.2488,0.2489,0.2502,0.2501,0.25,0,0,0,0,0,0,0.2147,0.2145,0.2162,0.2185,0.2194,0.2288,0.2253,0.227,0.2298,0.237,0.2383,0.2354,0.2435,0.2444,0.2459,0.243,0.2489,0.2491,0.2503,0.2501,0.25,0.2381,0,0,0,0,0,0,0.2145,0.2142,0.2102,0.218,0.2192,0.2201,0.2253,0.2272,0.2313,0.2322,0.2384,0.2395,0.2437,0.2455,0.2461,0.2434,0.2493,0.2504,0.2502,0.2501,0.2386,0.2375,0.2366,0,0,0,0,0,0.2144,0.2102,0.2097,0.2099,0.2135,0.2201,0.2216,0.2289,0.2311,0.2319,0.2356,0.2394,0.2449,0.2456,0.2463,0.2436,0.2505,0.2503,0.2501,0.239,0.2378,0.2367,0,0,0,0,0,0,0.2066,0.2111,0.2108,0.2071,0.2126,0.2221,0.224,0.2279,0.2315,0.2319,0.2377,0.2389,0.2389,0.243,0.2437,0.2436,0.2484,0.2483,0.2398,0.2386,0.2377,0.2358,0.2495,0,0,0,0,0,0.2028,0.2006,0.2072,0.2033,0.2066,0.2142,0.2174,0.2222,0.2274,0.2294,0.2329,0.2365,0.2383,0.24,0.2423,0.2419,0.2416,0.2409,0.2399,0.2391,0.2381,0.2351,0.2336,0.2492,0.2492,0.2493,0,0,0.198,0.2003,0.1985,0.2017,0.2066,0.2102,0.2165,0.2214,0.2232,0.2293,0.2306,0.2325,0.2373,0.237,0.2375,0.2403,0.2338,0.2388,0.238,0.2376,0.2347,0.2331,0.2318,0.2491,0.2491,0.2492,0,0,0.1912,0.1902,0.1884,0.1937,0.2011,0.2065,0.2075,0.2156,0.2184,0.22,0.2238,0.2236,0.2281,0.2295,0.2313,0.2262,0.2281,0.2276,0.2216,0.2185,0.2172,0.216,0.2099,0.2082,0.2278,0.2278,0.2278,0,0.1848,0.183,0.1891,0.1915,0.1953,0.2043,0.2055,0.21,0.2164,0.2164,0.2194,0.22,0.2242,0.2219,0.2213,0.2236,0.2216,0.2253,0.2169,0.2158,0.2147,0.2088,0.2072,0.2272,0.2272,0.2273,0.2274,0,0.1794,0.1791,0.18,0.1842,0.1886,0.1918,0.2002,0.2021,0.2056,0.2087,0.2065,0.2096,0.2102,0.2109,0.2154,0.2097,0.2101,0.215,0.2191,0.2124,0.2066,0.2051,0.2263,0.2265,0.2267,0.2269,0,0,0.1628,0.1732,0.1737,0.1755,0.1857,0.1887,0.1915,0.1955,0.1951,0.1979,0.1941,0.1966,0.1968,0.1987,0.2013,0.1994,0.1901,0.2042,0.2043,0.1965,0.18,0.1701,0.1676,0.1934,0.1932,0.193,0.1775,0,0.1565,0.1591,0.166,0.1678,0.1708,0.1798,0.1813,0.1857,0.1892,0.1876,0.1887,0.187,0.193,0.1911,0.1896,0.191,0.1862,0.1937,0.1892,0.189,0.1797,0.1656,0.1646,0.1499,0.176,0.1758,0.1756,0,0.15,0.1532,0.154,0.1609,0.1625,0.1635,0.1669,0.1699,0.1723,0.1736,0.1717,0.1745,0.1709,0.1772,0.1723,0.1768,0.1769,0.1773,0.1768,0.171,0.1762,0.1618,0.1462,0.147,0.1733,0.1735,0.1737,0,0.1395,0.1451,0.1448,0.1478,0.1561,0.1552,0.1586,0.1633,0.1634,0.1635,0.1608,0.1597,0.1561,0.157,0.1601,0.1659,0.153,0.1618,0.151,0.1503,0.1502,0.1498,0.1337,0.1553,0.1553,0.1554,0.1554,0,0.133,0.1328,0.139,0.1401,0.1362,0.1458,0.1416,0.1458,0.147,0.1427,0.1512,0.1446,0.1513,0.1474,0.152,0.1433,0.1461,0.1445,0.1439,0.1456,0.1449,0.1467,0.1479,0.1548,0.1549,0.155,0.1551,0,0.1228,0.1284,0.1271,0.1318,0.132,0.1289,0.131,0.1278,0.1327,0.1264,0.1254,0.1295,0.1252,0.1293,0.1282,0.1293,0.1212,0.1226,0.1216,0.121,0.112,0.1127,0.0874,0.086,0.1064,0.1061,0.1058,0,0.1183,0.1167,0.1178,0.1136,0.1144,0.112,0.1095,0.1175,0.1146,0.1155,0.1093,0.1069,0.1023,0.0955,0.0999,0.0987,0.1035,0.0941,0.105,0.1045,0.1052,0.103,0.104,0.0997,0.0994,0.0991,0.0989,0,0.1054,0.1047,0.1023,0.095,0.0904,0.0879,0.0859,0.0833,0.0902,0.0859,0.0797,0.0775,0.0767,0.0759,0.076,0.0778,0.0892,0.0879,0.0896,0.0962,0.0909,0.092,0.1157,0.0965,0.0967,0.0969,0.0971,0.0971,0.0905,0.0835,0.0782,0.0711,0.0671,0.0625,0.0576,0.056,0.0507,0.0471,0.0515,0.0486,0.0596,0.0616,0.0608,0.065,0.0673,0.0696,0.0693,0.0663,0.0663,0.08,0.0597,0.0597,0.0597,0.0597,0.0598,0,0.0673,0.0618,0.0539,0.0459,0.039,0.0431,0.0394,0.0355,0.0255,0.0269,0.0218,0.0326,0.0352,0.048,0.0562,0.0521,0.0547,0.051,0.0543,0.0561,0.071,0.0727,0.0516,0.0516,0.0516,0.0516,0.0516,0.0516,0.0532,0.0385,0.0369,0.0206,0.0165,0.0083,0.0058,0.0024,0.0038,0.004,0.011,0.0198,0.041,0.0455,0.0475,0.0461,0.0458,0.0369,0.0382,0.0585,0.0607,0.0627,0.0647,0.0423,0.0423,0.027,0.0269,0.0268]},{"header":{"parameterUnit":"m.s-1","parameterCategory":2,"la1":30.2991,"la2":30.254,"lo1":-89.0895,"lo2":-89.0444,"dy":0.0017,"dx":0.0017,"nx":28,"ny":28,"refTime":"2025-06-05T09:00:00:Z","depth":"0","parameterNumber":3,"parameterNumberName":"V-component_of_CURRENTS"},"data":[0,0,0,0,0,0,0,0,0,0,0,0,0,0,0,0,0,0,0,0,0,0,0,0,0,0,0,0,0,0,0,0,0,0,0,0,0,0,0,0,0,0,0,0,0,0,0,0,0,0,0,0,0,0,0,0,0,0,0.0148,0.0147,0,0.0121,0.0121,0.0121,0.0139,0.014,0.014,0.0141,0.0163,0.0163,0.0163,0,0,0,0,0,0,0,0,0,0,0,0,0,0.0192,0.0191,0.0148,0.0147,0.0147,0.0122,0.0121,0.0121,0.0139,0.014,0.014,0.0141,0.0163,0.0163,0.0163,0,0,0,0,0,0,0,0,0,0,0,0,0,0.0173,0.0191,0.0148,0.015,0.015,0.0122,0.0121,0.0121,0.0139,0.014,0.014,0.0141,0.0163,0.0163,0.0163,0.0148,0,0,0.0163,0.0164,0,0,0,0,0,0,0,0,0.0174,0.0172,0.015,0.015,0.015,0.0132,0.0145,0.0132,0.0139,0.0146,0.0141,0.0142,0.0154,0.0155,0.0152,0.0149,0.015,0.0163,0.0164,0.0164,0.0164,0,0,0,0,0,0,0,0.0175,0.0173,0.0141,0.015,0.0149,0.0145,0.0143,0.0142,0.015,0.0146,0.0146,0.0138,0.0155,0.0152,0.0153,0.0151,0.0163,0.0164,0.0164,0.0164,0.018,0.018,0,0,0,0,0,0,0.0172,0.0174,0.0141,0.014,0.016,0.0143,0.0142,0.0139,0.0149,0.0149,0.0137,0.0139,0.0151,0.0153,0.0154,0.0158,0.0164,0.0164,0.0164,0.018,0.018,0.018,0,0,0,0,0,0,0.0173,0.017,0.0142,0.0153,0.0149,0.0141,0.0138,0.0138,0.0138,0.0141,0.0144,0.0137,0.0152,0.0154,0.0162,0.0159,0.0164,0.0164,0.0179,0.018,0.018,0.0154,0,0,0,0,0,0,0.0175,0.0171,0.0171,0.0153,0.0148,0.0136,0.0137,0.0137,0.013,0.0132,0.0142,0.0144,0.0153,0.0162,0.0162,0.0159,0.0164,0.0179,0.0179,0.018,0.0154,0.0153,0.0152,0,0,0,0,0,0.0177,0.0172,0.0172,0.0167,0.0149,0.0135,0.0133,0.0132,0.0129,0.0134,0.014,0.0144,0.0167,0.0162,0.0163,0.0159,0.0178,0.0179,0.018,0.0154,0.0153,0.0152,0,0,0,0,0,0,0.019,0.0172,0.0172,0.0162,0.0154,0.0138,0.0135,0.0129,0.0135,0.0138,0.0143,0.0147,0.0154,0.0162,0.0157,0.0168,0.0175,0.0176,0.0155,0.0154,0.0154,0.0148,0.0164,0,0,0,0,0,0.0191,0.0189,0.017,0.0166,0.0159,0.0146,0.0139,0.0138,0.0135,0.0138,0.014,0.0149,0.0155,0.016,0.0169,0.0169,0.0177,0.017,0.0169,0.0168,0.0166,0.018,0.018,0.0183,0.0183,0.0183,0,0,0.0193,0.0185,0.0182,0.0169,0.016,0.0153,0.0145,0.0136,0.0131,0.0139,0.0137,0.0144,0.0156,0.0161,0.0165,0.0167,0.0171,0.0169,0.0168,0.0166,0.0181,0.018,0.018,0.0183,0.0183,0.0183,0,0,0.0193,0.0189,0.0184,0.018,0.0167,0.0159,0.0155,0.0139,0.0135,0.0131,0.0137,0.0142,0.0148,0.0156,0.016,0.0159,0.0166,0.0164,0.0152,0.0165,0.0165,0.0164,0.0167,0.0167,0.0163,0.0163,0.0163,0,0.02,0.0189,0.0181,0.0178,0.017,0.0161,0.0152,0.0146,0.0137,0.0127,0.0134,0.0137,0.0146,0.0147,0.0149,0.0156,0.0162,0.0151,0.0163,0.0163,0.0163,0.0165,0.0166,0.0162,0.0162,0.0162,0.0162,0,0.0197,0.019,0.0186,0.0181,0.0173,0.0166,0.0152,0.0144,0.0134,0.0125,0.012,0.013,0.0133,0.0136,0.014,0.0144,0.0147,0.0159,0.0161,0.0161,0.0164,0.0164,0.016,0.016,0.0161,0.0161,0,0,0.0215,0.0188,0.0189,0.0178,0.0173,0.0161,0.0152,0.0132,0.0117,0.0118,0.0103,0.0111,0.0111,0.0117,0.0124,0.0132,0.0134,0.0142,0.0143,0.0136,0.0156,0.0176,0.0179,0.0148,0.0148,0.0148,0.0154,0,0.0217,0.0199,0.0188,0.0174,0.0161,0.015,0.0137,0.0122,0.011,0.0099,0.0103,0.0101,0.0106,0.0106,0.0115,0.0132,0.0137,0.0131,0.0164,0.0165,0.0177,0.0182,0.0227,0.0239,0.0155,0.0155,0.0155,0,0.0223,0.0207,0.0185,0.0152,0.0145,0.0138,0.0108,0.0096,0.0083,0.0074,0.0075,0.008,0.0088,0.01,0.0121,0.0117,0.0132,0.0145,0.0146,0.0176,0.0188,0.0229,0.0244,0.0305,0.0157,0.0157,0.0157,0,0.0232,0.0205,0.0181,0.0177,0.0144,0.0127,0.011,0.0088,0.0068,0.0064,0.006,0.0068,0.0079,0.0099,0.0122,0.0123,0.015,0.0158,0.0188,0.0189,0.024,0.0246,0.0314,0.0175,0.0175,0.0175,0.0175,0,0.0241,0.0226,0.0181,0.0174,0.0142,0.0121,0.0092,0.0076,0.0057,0.0039,0.005,0.0046,0.0081,0.0098,0.0119,0.0156,0.0149,0.0185,0.0195,0.0232,0.0237,0.0303,0.0311,0.0175,0.0175,0.0175,0.0175,0,0.0261,0.0233,0.0206,0.0162,0.0147,0.0126,0.0083,0.0061,0.0046,0.003,0.0032,0.0035,0.0055,0.0085,0.0121,0.0156,0.0228,0.02,0.0234,0.0248,0.0339,0.0344,0.0384,0.0448,0.0237,0.0237,0.0238,0,0.0266,0.0254,0.0203,0.0184,0.0165,0.0129,0.0102,0.0065,0.0046,0.0019,0.0016,0.0026,0.0032,0.0091,0.0155,0.0203,0.0243,0.0283,0.0298,0.0353,0.0365,0.0355,0.0406,0.0351,0.0352,0.0353,0.0354,0,0.0282,0.0264,0.0241,0.02,0.0168,0.0127,0.009,0.0067,0.0027,0.0011,-0.0011,-0.0011,0.0048,0.0124,0.0203,0.0244,0.0346,0.0308,0.0365,0.046,0.0453,0.0518,0.0326,0.0364,0.0363,0.0362,0.0362,0.0361,0.0299,0.0283,0.025,0.0213,0.0175,0.0129,0.0086,0.0056,0.0017,-0.0011,-0.0014,0.0022,0.0129,0.0241,0.0278,0.044,0.0404,0.0501,0.0499,0.0482,0.0557,0.0379,0.043,0.0429,0.0429,0.0428,0.0428,0,0.0304,0.0285,0.026,0.0204,0.016,0.0135,0.0075,0.0034,-0.0014,0.0018,0.0004,0.0184,0.0277,0.0393,0.0572,0.0638,0.0664,0.0679,0.0691,0.0736,0.0588,0.061,0.0703,0.0703,0.0703,0.0702,0.0702,0.0702,0.0306,0.0281,0.0262,0.02,0.0153,0.0072,0.0026,-0.0009,0.0003,0.0109,0.024,0.034,0.056,0.0622,0.0778,0.0809,0.088,0.0848,0.0886,0.0796,0.078,0.0764,0.0789,0.0918,0.0918,0.1068,0.1069,0.107]}],[{"header":{"parameterUnit":"m.s-1","parameterCategory":2,"la1":30.2991,"la2":30.254,"lo1":-89.0895,"lo2":-89.0444,"dy":0.0017,"dx":0.0017,"nx":28,"ny":28,"refTime":"2025-06-05T09:00:00:Z","depth":"2","parameterNumber":2,"parameterNumberName":"U-component_of_CURRENTS"},"data":[0,0,0,0,0,0,0,0,0,0,0,0,0,0,0,0,0,0,0,0,0,0,0,0,0,0,0,0,0,0,0,0,0,0,0,0,0,0,0,0,0,0,0,0,0,0,0,0,0,0,0,0,0,0,0,0,0,0,0.1387,0.1387,0,0.144,0.1441,0.1441,0.1556,0.1559,0.1561,0.1563,0.1564,0.1562,0.156,0,0,0,0,0,0,0,0,0,0,0,0,0,0.1386,0.1386,0.1387,0.1387,0.1388,0.144,0.1441,0.1442,0.1556,0.1559,0.1561,0.1564,0.1565,0.1562,0.156,0,0,0,0,0,0,0,0,0,0,0,0,0,0.1408,0.1385,0.1386,0.145,0.1457,0.144,0.1441,0.1442,0.1555,0.1559,0.1562,0.1565,0.1566,0.1563,0.156,0.1473,0,0,0.155,0.1549,0,0,0,0,0,0,0,0,0.1407,0.1408,0.144,0.1446,0.1453,0.1494,0.1441,0.1449,0.1554,0.1519,0.1563,0.1567,0.1533,0.1533,0.1537,0.1473,0.1473,0.155,0.1548,0.1547,0.1546,0,0,0,0,0,0,0,0.1405,0.1407,0.1409,0.1441,0.1448,0.1477,0.1484,0.1444,0.1506,0.1522,0.153,0.1534,0.1537,0.154,0.1538,0.1473,0.155,0.1547,0.1545,0.1544,0.1535,0.1536,0,0,0,0,0,0,0.1393,0.1405,0.1407,0.141,0.1437,0.1474,0.1482,0.1478,0.1508,0.1516,0.1531,0.1539,0.1544,0.1541,0.1538,0.1517,0.1547,0.1544,0.1542,0.1533,0.1535,0.1537,0,0,0,0,0,0,0.1392,0.1392,0.1405,0.1409,0.1413,0.1471,0.1465,0.1477,0.1509,0.1515,0.1523,0.1553,0.1546,0.1543,0.155,0.1515,0.1543,0.154,0.1531,0.1534,0.1536,0.1422,0,0,0,0,0,0,0.1392,0.1391,0.1378,0.1407,0.1412,0.1367,0.1462,0.1476,0.1504,0.1516,0.1535,0.1538,0.1549,0.1555,0.1547,0.1511,0.1537,0.1529,0.1532,0.1535,0.1423,0.142,0.1417,0,0,0,0,0,0.1391,0.1365,0.1377,0.1377,0.1394,0.1364,0.1367,0.1422,0.1501,0.1473,0.1545,0.1539,0.157,0.1552,0.1543,0.1505,0.1528,0.1532,0.1535,0.1425,0.1421,0.1417,0,0,0,0,0,0,0.1352,0.1375,0.1389,0.1369,0.1351,0.1383,0.1389,0.1422,0.1456,0.1503,0.1532,0.1536,0.1513,0.1551,0.1531,0.1527,0.1556,0.1558,0.1476,0.1472,0.1469,0.148,0.1535,0,0,0,0,0,0.1332,0.1318,0.133,0.1299,0.1316,0.1354,0.1357,0.1385,0.1421,0.1444,0.1496,0.1545,0.1513,0.1531,0.1516,0.1508,0.1523,0.1497,0.1493,0.1489,0.1502,0.1512,0.1508,0.1549,0.1549,0.1549,0,0,0.1313,0.1313,0.131,0.1288,0.1314,0.1309,0.1367,0.1372,0.137,0.1431,0.1499,0.1502,0.1502,0.1488,0.1488,0.1525,0.1481,0.1494,0.1489,0.1505,0.1515,0.151,0.1506,0.1551,0.1551,0.155,0,0,0.1262,0.1272,0.126,0.1252,0.1262,0.1274,0.1276,0.1338,0.1373,0.1417,0.1438,0.1456,0.1494,0.1467,0.1454,0.1434,0.1432,0.1436,0.1447,0.1455,0.145,0.1446,0.1419,0.1414,0.1471,0.1471,0.1471,0,0.1229,0.1232,0.1239,0.123,0.1243,0.1266,0.1268,0.1269,0.1327,0.1357,0.1448,0.1487,0.1486,0.1397,0.1414,0.1414,0.1421,0.1439,0.1443,0.144,0.1438,0.1412,0.1408,0.1466,0.1466,0.1467,0.1467,0,0.1169,0.1197,0.1197,0.1201,0.1185,0.1189,0.1201,0.1231,0.1329,0.1353,0.1364,0.1392,0.1434,0.1411,0.1414,0.1363,0.1366,0.1395,0.1433,0.1426,0.14,0.1397,0.1458,0.146,0.1462,0.1463,0,0,0.1058,0.1145,0.1155,0.1194,0.1194,0.1181,0.1181,0.1183,0.1216,0.1286,0.1329,0.1299,0.1353,0.1346,0.132,0.1341,0.1313,0.1383,0.1386,0.1319,0.1306,0.1177,0.1162,0.1339,0.1339,0.134,0.1275,0,0.1027,0.1064,0.1088,0.1116,0.1161,0.1183,0.1175,0.1167,0.1226,0.1269,0.1264,0.1278,0.1299,0.1327,0.1337,0.1302,0.131,0.1327,0.1357,0.1358,0.1214,0.1156,0.1084,0.1011,0.1273,0.1273,0.1272,0,0.0987,0.1021,0.1076,0.116,0.1178,0.1161,0.1199,0.1198,0.1197,0.1252,0.1266,0.1273,0.1232,0.1309,0.1269,0.1281,0.1303,0.1303,0.1301,0.1226,0.1225,0.1076,0.0997,0.1268,0.1269,0.1269,0.1269,0,0.0967,0.1034,0.1093,0.111,0.1164,0.118,0.1199,0.1206,0.1199,0.1229,0.1245,0.1225,0.1216,0.1246,0.1241,0.1278,0.1215,0.1268,0.1157,0.1147,0.1116,0.1103,0.1278,0.1278,0.1278,0.1278,0.1278,0,0.096,0.102,0.1095,0.1124,0.1129,0.119,0.1187,0.1216,0.1222,0.117,0.1227,0.1168,0.1215,0.1175,0.1214,0.1135,0.1194,0.1131,0.1118,0.1071,0.1055,0.1327,0.1334,0.1276,0.1276,0.1277,0.1277,0,0.095,0.1036,0.1074,0.1127,0.1133,0.1132,0.1129,0.1116,0.1169,0.1104,0.1103,0.1097,0.1056,0.1062,0.1075,0.1057,0.1035,0.1005,0.0915,0.0891,0.0977,0.0979,0.0886,0.0881,0.0877,0.0873,0.087,0,0.0966,0.099,0.1018,0.0985,0.1001,0.1005,0.098,0.1055,0.1025,0.1023,0.0961,0.0934,0.085,0.0789,0.0791,0.0782,0.089,0.0699,0.0759,0.0938,0.0935,0.0945,0.0953,0.0672,0.0667,0.0664,0.0661,0,0.0897,0.0902,0.0893,0.0833,0.0804,0.0778,0.0772,0.0747,0.081,0.0761,0.0688,0.0647,0.0608,0.0532,0.052,0.0536,0.0697,0.062,0.0834,0.0765,0.0725,0.0727,0.0744,0.0628,0.0632,0.0634,0.0636,0.0637,0.0776,0.0716,0.0672,0.0613,0.0583,0.054,0.0496,0.0478,0.0425,0.0372,0.0406,0.0331,0.0373,0.0291,0.0314,0.0374,0.0439,0.0458,0.0474,0.0493,0.0463,0.0416,0.0254,0.0255,0.0256,0.0257,0.0257,0,0.0551,0.0508,0.044,0.0373,0.0309,0.0354,0.032,0.0276,0.0172,0.0154,0.0085,0.0058,0.0012,0.0122,0.0139,0.0157,0.0248,0.0188,0.0299,0.0326,0.0352,0.0323,0.0072,0.0072,0.0073,0.0073,0,0,0.0417,0.0286,0.0275,0.0124,0.009,0.0012,-0.0012,-0.0058,-0.0069,-0.0146,-0.0167,-0.016,-0.0033,-0.0064,-0.0006,0.002,0.0181,0.0039,0.0172,0.0318,0.0344,0.0476,0.0454,0,0,0,0,0]},{"header":{"parameterUnit":"m.s-1","parameterCategory":2,"la1":30.2991,"la2":30.254,"lo1":-89.0895,"lo2":-89.0444,"dy":0.0017,"dx":0.0017,"nx":28,"ny":28,"refTime":"2025-06-05T09:00:00:Z","depth":"2","parameterNumber":3,"parameterNumberName":"V-component_of_CURRENTS"},"data":[0,0,0,0,0,0,0,0,0,0,0,0,0,0,0,0,0,0,0,0,0,0,0,0,0,0,0,0,0,0,0,0,0,0,0,0,0,0,0,0,0,0,0,0,0,0,0,0,0,0,0,0,0,0,0,0,0,0,-0.0119,-0.012,0,-0.0176,-0.0177,-0.0177,-0.016,-0.0159,-0.0158,-0.0157,-0.0158,-0.0159,-0.016,0,0,0,0,0,0,0,0,0,0,0,0,0,-0.0097,-0.0097,-0.0119,-0.012,-0.0121,-0.0176,-0.0177,-0.0178,-0.016,-0.0159,-0.0157,-0.0156,-0.0158,-0.0159,-0.016,0,0,0,0,0,0,0,0,0,0,0,0,0,-0.0124,-0.0097,-0.0119,-0.012,-0.0121,-0.0176,-0.0177,-0.0178,-0.016,-0.0159,-0.0157,-0.0156,-0.0157,-0.0159,-0.016,-0.0201,0,0,-0.0165,-0.0166,0,0,0,0,0,0,0,0,-0.0122,-0.0125,-0.0119,-0.012,-0.0121,-0.0161,-0.017,-0.0183,-0.0161,-0.0144,-0.0157,-0.0155,-0.0156,-0.0158,-0.017,-0.0201,-0.0201,-0.0165,-0.0166,-0.0167,-0.0167,0,0,0,0,0,0,0,-0.012,-0.0123,-0.014,-0.012,-0.0122,-0.0153,-0.0154,-0.0173,-0.0156,-0.0145,-0.0144,-0.0154,-0.0156,-0.0169,-0.017,-0.0201,-0.0165,-0.0166,-0.0167,-0.0168,-0.0183,-0.0183,0,0,0,0,0,0,-0.0113,-0.012,-0.0138,-0.0142,-0.012,-0.0154,-0.0155,-0.0148,-0.0157,-0.0157,-0.0155,-0.0153,-0.0167,-0.0168,-0.017,-0.0139,-0.0167,-0.0168,-0.0169,-0.0184,-0.0183,-0.0183,0,0,0,0,0,0,-0.0112,-0.0114,-0.0136,-0.0135,-0.014,-0.0156,-0.0149,-0.015,-0.016,-0.0165,-0.0164,-0.0162,-0.0166,-0.0168,-0.0166,-0.0142,-0.0169,-0.017,-0.0185,-0.0184,-0.0183,-0.0129,0,0,0,0,0,0,-0.0111,-0.0112,-0.0104,-0.0134,-0.014,-0.0167,-0.015,-0.0153,-0.0169,-0.0167,-0.0172,-0.017,-0.0165,-0.0164,-0.0168,-0.0144,-0.0171,-0.0185,-0.0184,-0.0183,-0.0131,-0.0126,-0.0122,0,0,0,0,0,-0.011,-0.0106,-0.0103,-0.0106,-0.0127,-0.0168,-0.0174,-0.0179,-0.0171,-0.0181,-0.0167,-0.017,-0.016,-0.0165,-0.017,-0.0146,-0.0186,-0.0184,-0.0183,-0.0133,-0.0127,-0.0122,0,0,0,0,0,0,-0.0075,-0.0105,-0.0102,-0.0101,-0.0131,-0.0165,-0.018,-0.0185,-0.0188,-0.0179,-0.0174,-0.0172,-0.0152,-0.017,-0.0175,-0.0148,-0.017,-0.017,-0.013,-0.0125,-0.0121,-0.0136,-0.0173,0,0,0,0,0,-0.0069,-0.0076,-0.011,-0.0105,-0.0129,-0.0157,-0.0173,-0.0179,-0.0189,-0.0189,-0.0182,-0.0174,-0.0157,-0.0157,-0.015,-0.0155,-0.0164,-0.0141,-0.0136,-0.0132,-0.0148,-0.0135,-0.013,-0.0179,-0.0179,-0.0179,0,0,-0.0052,-0.0069,-0.007,-0.0101,-0.0128,-0.0165,-0.0162,-0.0191,-0.0203,-0.019,-0.0189,-0.0159,-0.0153,-0.0133,-0.0128,-0.0143,-0.0118,-0.013,-0.0127,-0.0145,-0.0133,-0.0128,-0.0124,-0.0178,-0.0179,-0.0179,0,0,-0.0042,-0.0045,-0.0063,-0.0096,-0.0141,-0.0165,-0.0176,-0.0208,-0.0205,-0.0205,-0.0178,-0.0137,-0.0138,-0.0111,-0.0102,-0.0081,-0.0088,-0.0074,-0.0071,-0.0056,-0.0052,-0.0049,-0.0034,-0.003,-0.0079,-0.0078,-0.0078,0,-0.0028,-0.0035,-0.0073,-0.011,-0.0129,-0.0168,-0.0193,-0.0216,-0.0229,-0.0211,-0.0197,-0.0133,-0.0125,-0.0083,-0.0066,-0.0068,-0.0067,-0.0086,-0.005,-0.0047,-0.0044,-0.003,-0.0026,-0.0076,-0.0076,-0.0076,-0.0077,0,-0.0037,-0.005,-0.0069,-0.0122,-0.0155,-0.0179,-0.0225,-0.0233,-0.0222,-0.0215,-0.0157,-0.0123,-0.0081,-0.006,-0.006,-0.0026,-0.0031,-0.0036,-0.0061,-0.0036,-0.0023,-0.002,-0.0072,-0.0073,-0.0074,-0.0074,0,0,-0.0001,-0.006,-0.0069,-0.0084,-0.0154,-0.0181,-0.0211,-0.0227,-0.0221,-0.0194,-0.015,-0.01,-0.006,-0.0049,-0.002,-0.0009,0.0024,-0.0021,-0.0021,-0.0003,0.0055,0.0076,0.0081,0.0027,0.0028,0.0028,0.0064,0,0.0004,-0.0033,-0.007,-0.0109,-0.0137,-0.0177,-0.0196,-0.0213,-0.0207,-0.018,-0.0124,-0.0079,-0.0067,-0.0023,-0.0007,0.0015,0.0031,0.0014,0.0023,0.0023,0.0041,0.0084,0.0104,0.0139,0.0067,0.0068,0.0068,0,-0.0002,-0.0021,-0.0042,-0.008,-0.0097,-0.0122,-0.014,-0.0161,-0.0153,-0.0135,-0.0084,-0.0057,-0.0015,-0.001,0.0033,0.0021,0.0034,0.0048,0.005,0.0044,0.0048,0.0097,0.0147,0.0073,0.0072,0.0072,0.0072,0,0.0048,-0.0007,-0.0005,-0.0025,-0.0079,-0.0079,-0.0103,-0.0123,-0.0134,-0.0106,-0.0089,-0.0037,-0.0,0.002,0.0038,0.0035,0.0078,0.0079,0.0114,0.0115,0.0118,0.0119,0.0102,0.0102,0.0102,0.0102,0.0102,0,0.0067,0.0065,0.0023,0.002,0.0014,-0.0033,-0.0037,-0.0055,-0.0064,-0.007,-0.0055,-0.0039,0.0003,0.0027,0.0044,0.009,0.0083,0.0118,0.0128,0.014,0.0143,0.0064,0.0059,0.0104,0.0103,0.0103,0.0103,0,0.0118,0.0097,0.0085,0.0049,0.0034,0.0031,-0.0026,-0.0034,-0.0043,-0.0049,-0.0042,-0.0036,-0.0011,0.0026,0.0064,0.0102,0.0137,0.0151,0.0163,0.0174,0.0166,0.0163,0.0205,0.0206,0.0207,0.0208,0.0209,0,0.0151,0.0151,0.0107,0.0089,0.0073,0.0051,0.0025,-0.0013,-0.0034,-0.0056,-0.0053,-0.0035,-0.0028,0.0048,0.0116,0.0174,0.0147,0.0229,0.0229,0.0172,0.0177,0.0173,0.0169,0.0261,0.0262,0.0263,0.0264,0,0.0197,0.0182,0.0163,0.0126,0.0096,0.0055,0.002,-0.0001,-0.0044,-0.0058,-0.0079,-0.0076,0.0001,0.0077,0.0167,0.0202,0.0224,0.0249,0.0192,0.023,0.0227,0.0232,0.0226,0.0271,0.0271,0.027,0.027,0.0269,0.0228,0.0214,0.0177,0.0142,0.0104,0.0057,0.0016,-0.0018,-0.0057,-0.0087,-0.0084,-0.0057,0.0005,0.0149,0.0195,0.0274,0.0277,0.0304,0.03,0.0296,0.0294,0.0293,0.0349,0.0348,0.0348,0.0348,0.0348,0,0.023,0.0208,0.0185,0.0126,0.008,0.0059,-0.0002,-0.0046,-0.0097,-0.0071,-0.0083,-0.001,0.008,0.0145,0.029,0.035,0.0338,0.0345,0.0322,0.0317,0.0312,0.0308,0.0367,0.0367,0.0367,0.0366,0,0,0.0226,0.0195,0.0176,0.0107,0.0063,-0.002,-0.0065,-0.0103,-0.0099,-0.0083,-0.0032,0.0007,0.0105,0.0185,0.0254,0.0326,0.0299,0.0327,0.0316,0.0279,0.0272,0.0306,0.0297,0,0,0,0,0]}],[{"header":{"parameterUnit":"m.s-1","parameterCategory":2,"la1":30.2991,"la2":30.254,"lo1":-89.0895,"lo2":-89.0444,"dy":0.0017,"dx":0.0017,"nx":28,"ny":28,"refTime":"2025-06-05T09:00:00:Z","depth":"4","parameterNumber":2,"parameterNumberName":"U-component_of_CURRENTS"},"data":[0,0,0,0,0,0,0,0,0,0,0,0,0,0,0,0,0,0,0,0,0,0,0,0,0,0,0,0,0,0,0,0,0,0,0,0,0,0,0,0,0,0,0,0,0,0,0,0,0,0,0,0,0,0,0,0,0,0,-0.049,-0.049,0,-0.052,-0.0521,-0.0523,-0.0572,-0.0571,-0.0571,-0.0571,-0.0654,-0.0656,-0.0658,0,0,0,0,0,0,0,0,0,0,0,0,0,-0.0503,-0.0503,-0.049,-0.049,-0.0489,-0.052,-0.0521,-0.0523,-0.0572,-0.0571,-0.0571,-0.0571,-0.0653,-0.0656,-0.0658,0,0,0,0,0,0,0,0,0,0,0,0,0,-0.0522,-0.0503,-0.049,-0.0509,-0.051,-0.052,-0.0521,-0.0523,-0.0572,-0.0571,-0.0571,-0.0571,-0.0652,-0.0655,-0.0659,-0.0683,0,0,-0.0669,-0.0671,0,0,0,0,0,0,0,0,-0.0521,-0.0523,-0.0507,-0.0508,-0.0509,-0.0532,-0.0555,-0.0576,-0.0572,-0.056,-0.0571,-0.0571,-0.0611,-0.0618,-0.0639,-0.0687,-0.069,-0.067,-0.0672,-0.0673,-0.0674,0,0,0,0,0,0,0,-0.0519,-0.0522,-0.0513,-0.0506,-0.0507,-0.0524,-0.0528,-0.056,-0.0595,-0.0561,-0.0562,-0.0548,-0.0614,-0.0635,-0.0641,-0.0692,-0.067,-0.0673,-0.0675,-0.0676,-0.0859,-0.0862,0,0,0,0,0,0,-0.0492,-0.052,-0.0512,-0.0513,-0.0502,-0.0523,-0.0528,-0.0534,-0.0594,-0.0599,-0.0548,-0.055,-0.0629,-0.0637,-0.0644,-0.0772,-0.0673,-0.0676,-0.0678,-0.0857,-0.086,-0.0863,0,0,0,0,0,0,-0.0493,-0.0492,-0.0511,-0.0507,-0.051,-0.0522,-0.0529,-0.0534,-0.0612,-0.0581,-0.059,-0.0624,-0.063,-0.0639,-0.0699,-0.0771,-0.0678,-0.0681,-0.0853,-0.0858,-0.0862,-0.0966,0,0,0,0,0,0,-0.0494,-0.0493,-0.0531,-0.0506,-0.0508,-0.055,-0.0528,-0.0535,-0.0594,-0.0599,-0.0649,-0.0653,-0.063,-0.0694,-0.0703,-0.0775,-0.0684,-0.085,-0.0855,-0.086,-0.0959,-0.0973,-0.0986,0,0,0,0,0,-0.0495,-0.0516,-0.0533,-0.0533,-0.0546,-0.0551,-0.0557,-0.0571,-0.0598,-0.0642,-0.0663,-0.0654,-0.0734,-0.0699,-0.0709,-0.0783,-0.0847,-0.0854,-0.086,-0.0953,-0.0971,-0.0985,0,0,0,0,0,0,-0.0527,-0.0521,-0.0539,-0.0558,-0.0575,-0.0556,-0.0595,-0.0615,-0.0672,-0.0686,-0.0684,-0.069,-0.0768,-0.0765,-0.0727,-0.0851,-0.0793,-0.0802,-0.0862,-0.0878,-0.0891,-0.0845,-0.0687,0,0,0,0,0,-0.0554,-0.0574,-0.0573,-0.0589,-0.0613,-0.063,-0.065,-0.0654,-0.0672,-0.0702,-0.0722,-0.0754,-0.0796,-0.0828,-0.0846,-0.0922,-0.085,-0.0978,-0.0992,-0.1003,-0.0973,-0.0912,-0.0915,-0.0884,-0.0884,-0.0884,0,0,-0.0563,-0.0561,-0.0574,-0.06,-0.0624,-0.0659,-0.0648,-0.068,-0.0713,-0.07,-0.0776,-0.0801,-0.0824,-0.0891,-0.093,-0.0905,-0.0982,-0.1011,-0.102,-0.0983,-0.0918,-0.092,-0.0922,-0.0888,-0.0887,-0.0887,0,0,-0.0574,-0.061,-0.0645,-0.0659,-0.0687,-0.0707,-0.0736,-0.0756,-0.0789,-0.0854,-0.085,-0.0909,-0.0983,-0.0991,-0.1015,-0.112,-0.1048,-0.1157,-0.1197,-0.114,-0.114,-0.114,-0.1074,-0.1067,-0.1171,-0.1171,-0.1172,0,-0.0603,-0.0625,-0.0655,-0.0681,-0.0699,-0.0743,-0.0786,-0.0822,-0.0851,-0.0877,-0.0892,-0.0995,-0.1024,-0.1095,-0.1127,-0.115,-0.1088,-0.1136,-0.1152,-0.115,-0.1147,-0.1079,-0.107,-0.1177,-0.1177,-0.1176,-0.1175,0,-0.0621,-0.0657,-0.0675,-0.0737,-0.078,-0.0805,-0.085,-0.0903,-0.0966,-0.0986,-0.1075,-0.1105,-0.1147,-0.1204,-0.1202,-0.1229,-0.1182,-0.1167,-0.11,-0.1155,-0.1083,-0.107,-0.1186,-0.1183,-0.1182,-0.118,0,0,-0.0632,-0.0687,-0.0698,-0.0725,-0.0804,-0.0825,-0.0912,-0.0985,-0.1026,-0.1097,-0.1142,-0.1247,-0.1246,-0.1268,-0.1286,-0.1265,-0.1221,-0.1212,-0.1206,-0.1125,-0.1072,-0.1045,-0.1028,-0.1196,-0.1194,-0.1193,-0.1035,0,-0.0653,-0.0689,-0.0735,-0.0799,-0.0829,-0.0895,-0.0957,-0.1022,-0.1095,-0.1138,-0.1201,-0.1233,-0.1278,-0.1283,-0.1287,-0.1214,-0.1189,-0.1263,-0.1047,-0.104,-0.0991,-0.1014,-0.1187,-0.1025,-0.1022,-0.102,-0.1018,0,-0.0664,-0.0678,-0.0735,-0.0799,-0.083,-0.0871,-0.0976,-0.1028,-0.1105,-0.1148,-0.1212,-0.1231,-0.1236,-0.1246,-0.1168,-0.1204,-0.1139,-0.1097,-0.1089,-0.1005,-0.0989,-0.0954,-0.0994,-0.0996,-0.0998,-0.1,-0.1001,0,-0.0616,-0.0687,-0.0731,-0.0742,-0.0827,-0.0863,-0.0918,-0.1014,-0.103,-0.1101,-0.1097,-0.1162,-0.1098,-0.1085,-0.1028,-0.1066,-0.0906,-0.0942,-0.0867,-0.0864,-0.0884,-0.0886,-0.086,-0.086,-0.0861,-0.0861,-0.0862,0,-0.0585,-0.0618,-0.0689,-0.0684,-0.0712,-0.0801,-0.0832,-0.0898,-0.0949,-0.0948,-0.1048,-0.1029,-0.1034,-0.0974,-0.0981,-0.0872,-0.0857,-0.085,-0.0816,-0.094,-0.095,-0.0876,-0.088,-0.0855,-0.0857,-0.0858,-0.0859,0,-0.0524,-0.0567,-0.0598,-0.0669,-0.0671,-0.0681,-0.0707,-0.0726,-0.0783,-0.0769,-0.0759,-0.082,-0.0775,-0.0802,-0.0723,-0.0732,-0.0687,-0.065,-0.0756,-0.0734,-0.07,-0.0712,-0.0555,-0.0553,-0.0551,-0.0549,-0.0548,0,-0.0497,-0.0502,-0.0555,-0.0531,-0.0549,-0.0549,-0.0542,-0.0608,-0.0621,-0.0649,-0.0629,-0.0586,-0.0636,-0.0523,-0.0574,-0.0575,-0.0588,-0.0524,-0.066,-0.0683,-0.0666,-0.0681,-0.0695,-0.0545,-0.0544,-0.0544,-0.0543,0,-0.0438,-0.0475,-0.0502,-0.046,-0.0432,-0.0411,-0.0405,-0.0386,-0.0466,-0.0468,-0.0481,-0.0498,-0.0446,-0.0488,-0.0452,-0.0478,-0.0562,-0.0504,-0.0511,-0.0638,-0.0668,-0.0657,-0.0673,-0.0536,-0.0537,-0.0538,-0.0538,0,-0.0427,-0.0416,-0.0453,-0.0405,-0.0369,-0.0339,-0.0328,-0.0338,-0.0343,-0.0393,-0.0367,-0.0418,-0.0412,-0.043,-0.0428,-0.043,-0.0465,-0.0458,-0.0467,-0.0475,-0.0536,-0.0569,-0.0353,0,0,0,0,0,-0.0405,-0.0388,-0.0378,-0.0348,-0.0324,-0.0306,-0.0291,-0.0302,-0.0316,-0.0305,-0.0352,-0.035,-0.0371,-0.0401,-0.0399,-0.0422,-0.0474,-0.0415,-0.0472,-0.0497,-0.0506,-0.0594,0,0,0,0,0,0,-0.0386,-0.0395,-0.0385,-0.0326,-0.0296,-0.0276,-0.0275,-0.0282,-0.0299,-0.0308,-0.0336,-0.0311,-0.0357,-0.0368,-0.0386,-0.0389,-0.0415,-0.0425,-0.0424,-0.0493,-0.05,-0.0507,-0.06,0,0,0,0,0]},{"header":{"parameterUnit":"m.s-1","parameterCategory":2,"la1":30.2991,"la2":30.254,"lo1":-89.0895,"lo2":-89.0444,"dy":0.0017,"dx":0.0017,"nx":28,"ny":28,"refTime":"2025-06-05T09:00:00:Z","depth":"4","parameterNumber":3,"parameterNumberName":"V-component_of_CURRENTS"},"data":[0,0,0,0,0,0,0,0,0,0,0,0,0,0,0,0,0,0,0,0,0,0,0,0,0,0,0,0,0,0,0,0,0,0,0,0,0,0,0,0,0,0,0,0,0,0,0,0,0,0,0,0,0,0,0,0,0,0,0.0126,0.0126,0,0.0158,0.0159,0.016,0.0206,0.0207,0.0207,0.0208,0.0274,0.0276,0.0277,0,0,0,0,0,0,0,0,0,0,0,0,0,0.0137,0.0137,0.0126,0.0126,0.0126,0.0158,0.0159,0.016,0.0206,0.0207,0.0207,0.0208,0.0274,0.0275,0.0277,0,0,0,0,0,0,0,0,0,0,0,0,0,0.015,0.0137,0.0126,0.0151,0.0154,0.0158,0.0159,0.016,0.0206,0.0207,0.0208,0.0208,0.0273,0.0275,0.0277,0.0273,0,0,0.0283,0.0284,0,0,0,0,0,0,0,0,0.0149,0.015,0.0147,0.0149,0.0152,0.0176,0.0187,0.0198,0.0206,0.0189,0.0208,0.0209,0.0242,0.0247,0.0255,0.0276,0.0279,0.0283,0.0284,0.0285,0.0286,0,0,0,0,0,0,0,0.0148,0.0149,0.0142,0.0147,0.015,0.0172,0.0174,0.019,0.0214,0.0191,0.0193,0.0192,0.0244,0.0253,0.0257,0.028,0.0283,0.0285,0.0286,0.0287,0.0359,0.036,0,0,0,0,0,0,0.0135,0.0148,0.0141,0.0143,0.0149,0.017,0.0174,0.017,0.0213,0.0219,0.0191,0.0194,0.0249,0.0255,0.0259,0.0308,0.0285,0.0287,0.0288,0.0358,0.0359,0.036,0,0,0,0,0,0,0.0136,0.0134,0.014,0.0144,0.0146,0.0169,0.0165,0.017,0.0226,0.0212,0.022,0.0246,0.025,0.0257,0.0277,0.0309,0.0288,0.029,0.0357,0.0358,0.0359,0.0371,0,0,0,0,0,0,0.0136,0.0134,0.0162,0.0143,0.0145,0.0146,0.0164,0.017,0.0219,0.0225,0.0261,0.0265,0.0251,0.0274,0.0279,0.0311,0.0291,0.0356,0.0358,0.0359,0.037,0.0373,0.0375,0,0,0,0,0,0.0136,0.0138,0.0163,0.0164,0.017,0.0146,0.015,0.0171,0.0221,0.0231,0.0251,0.0267,0.0288,0.0275,0.0281,0.0315,0.0356,0.0357,0.0359,0.0369,0.0372,0.0375,0,0,0,0,0,0,0.0153,0.0142,0.0169,0.0171,0.017,0.0153,0.0179,0.0203,0.0233,0.026,0.0266,0.0269,0.0296,0.0306,0.0293,0.034,0.0329,0.0332,0.0335,0.0339,0.0341,0.0339,0.0293,0,0,0,0,0,0.0171,0.0171,0.0166,0.017,0.0184,0.0204,0.0217,0.0225,0.0231,0.0251,0.0266,0.0291,0.0302,0.0322,0.032,0.0352,0.0375,0.0381,0.0384,0.0386,0.0388,0.0461,0.0471,0.0365,0.0365,0.0365,0,0,0.0176,0.0172,0.0175,0.0175,0.0195,0.0179,0.0216,0.0233,0.022,0.0252,0.0267,0.0297,0.0309,0.0322,0.034,0.0342,0.0423,0.0388,0.039,0.0391,0.0464,0.0474,0.0483,0.0367,0.0366,0.0366,0,0,0.0155,0.0195,0.0191,0.0182,0.02,0.0201,0.0219,0.0227,0.0249,0.0262,0.0278,0.0326,0.0348,0.0351,0.0361,0.0387,0.0426,0.0408,0.0432,0.0503,0.0512,0.0521,0.0542,0.0553,0.0421,0.0421,0.0421,0,0.0172,0.0164,0.0185,0.0165,0.0168,0.0214,0.0205,0.0208,0.0215,0.0235,0.0267,0.0339,0.0355,0.0381,0.0389,0.0394,0.0431,0.0418,0.0507,0.0516,0.0525,0.0545,0.0557,0.0422,0.0421,0.0421,0.0421,0,0.0123,0.0138,0.0135,0.0128,0.0127,0.0129,0.0127,0.0147,0.0208,0.0216,0.0283,0.0323,0.038,0.0396,0.0403,0.0475,0.0478,0.0494,0.05,0.0537,0.0555,0.0566,0.0423,0.0422,0.0422,0.0422,0,0,0.0122,0.011,0.0119,0.0133,0.012,0.0119,0.01,0.0113,0.0141,0.019,0.0249,0.0294,0.0379,0.0397,0.0441,0.0504,0.0592,0.054,0.0543,0.0559,0.0733,0.0592,0.0591,0.0645,0.0647,0.0649,0.0712,0,0.0105,0.0085,0.0069,0.0064,0.0075,0.0082,0.0058,0.0067,0.0114,0.0167,0.0256,0.0324,0.0359,0.0438,0.0505,0.0569,0.0629,0.0572,0.0695,0.0697,0.0569,0.0602,0.0658,0.0721,0.0724,0.0726,0.0727,0,0.0082,0.0079,0.0086,0.0078,0.0087,0.0081,0.0115,0.0096,0.0137,0.0184,0.0281,0.0346,0.0448,0.0497,0.0635,0.0609,0.068,0.0724,0.0728,0.0602,0.0579,0.0683,0.0749,0.0747,0.0745,0.0744,0.0743,0,0.0117,0.0097,0.0129,0.0119,0.0103,0.0127,0.0129,0.0136,0.0133,0.0234,0.0269,0.0394,0.048,0.06,0.0681,0.0694,0.0816,0.0841,0.0768,0.0758,0.0861,0.0851,0.0951,0.0951,0.0951,0.095,0.095,0,0.0115,0.0136,0.017,0.0181,0.0206,0.019,0.0218,0.0221,0.0245,0.0241,0.0326,0.0354,0.0521,0.0591,0.0692,0.074,0.0831,0.0769,0.0773,0.0859,0.0849,0.0868,0.0857,0.0953,0.0952,0.0952,0.0951,0,0.0158,0.0167,0.02,0.0224,0.0231,0.0268,0.0245,0.0235,0.027,0.0281,0.0318,0.0354,0.0432,0.0536,0.0696,0.0715,0.0799,0.0795,0.0839,0.0844,0.0695,0.0685,0.074,0.0736,0.0732,0.0729,0.0727,0,0.0177,0.0207,0.0258,0.0245,0.0271,0.0298,0.0271,0.0276,0.0253,0.0251,0.0248,0.0306,0.034,0.0438,0.0555,0.0696,0.0707,0.0734,0.0755,0.068,0.0679,0.0674,0.0669,0.0721,0.072,0.0719,0.0718,0,0.0191,0.0239,0.0254,0.0245,0.0244,0.0228,0.0216,0.0205,0.019,0.0218,0.0187,0.0224,0.0269,0.0371,0.0456,0.0565,0.0714,0.0698,0.0707,0.0727,0.0657,0.0659,0.0658,0.0706,0.0708,0.0709,0.0709,0,0.0202,0.02,0.02,0.0197,0.0169,0.0138,0.016,0.0121,0.011,0.0128,0.0111,0.0175,0.0233,0.0298,0.0384,0.0458,0.0488,0.0513,0.0533,0.0548,0.0457,0.0338,0.0293,0,0,0,0,0,0.0162,0.0114,0.0105,0.0074,0.0062,0.005,0.0063,0.0085,0.0106,0.0074,0.0095,0.0136,0.0204,0.0232,0.0286,0.0324,0.0503,0.0381,0.0543,0.0636,0.0651,0.0562,0,0,0,0,0,0,0.0101,0.0072,0.007,-0.0026,-0.006,-0.0094,-0.0074,-0.0034,-0.0039,0.0005,0.0056,0.0092,0.0186,0.0171,0.0264,0.0284,0.0378,0.0435,0.0434,0.0628,0.0641,0.0653,0.0567,0,0,0,0,0]}]]